Regional Weather Roundup
Issued by NWS Upton, NY

Current Version | Previous Version | Text Only | Print | Product List | Glossary On
Versions: 1 2 3 4 5 6 7 8 9 10 11 12 13 14 15 16 17 18 19 20 21 22 23 24 25 26 27
000
ASUS41 KOKX 270709
RWROKX

REGIONAL WEATHER ROUNDUP
NATIONAL WEATHER SERVICE NEW YORK NY
300 AM EDT SAT MAY 27 2017

NOTE: "FAIR" INDICATES FEW OR NO CLOUDS BELOW 12,000 FEET WITH NO
SIGNIFICANT WEATHER AND/OR OBSTRUCTIONS TO VISIBILITY.

NYZ071-072-176-178-NJZ106-104-270800-
NEW YORK CITY METRO AREA

CITY           SKY/WX    TMP DP  RH WIND       PRES   REMARKS
Central Park   CLEAR     61  53  75 NW6       29.84F
Wall St Helipt SUNNY     62  54  74 VRB3      29.83S
Bronx Bot Gard   N/A     61  52  72 NW3       29.84R
LaGuardia APRT CLEAR     63  53  70 W10       29.81S
Kennedy INTL   PTCLDY    64  54  69 NW12G21   29.82S
Breezy Point     N/A     61 N/A N/A W3          N/A
Newark/Liberty CLEAR     61  53  75 W3        29.82S
Teterboro      CLEAR     60  53  77 CALM      29.81S
$$

NYZ177-179-078>081-270800-
LONG ISLAND NEW YORK

CITY           SKY/WX    TMP DP  RH WIND       PRES   REMARKS
Jones Beach      N/A     61 N/A N/A NW9         N/A
Matinecock PT  NOT AVBL
Farmingdale    CLEAR     59  53  80 CALM      29.82R
MacArthur/ISP  CLEAR     57  55  93 CALM      29.81R
Shirley        CLEAR     55  55 100 W3        29.81S
Mt Sinai Harb    N/A     57 N/A N/A NW3         N/A
Westhampton    MOCLDY    54  50  86 W3        29.82R
East Hampton     N/A     55  53  93 CALM      29.79S
Montauk          N/A     58  54  86 NW7       29.80R
$$

NYZ052-065-067-270800-
HUDSON VALLEY

CITY           SKY/WX    TMP DP  RH WIND       PRES   REMARKS
White Plains   CLEAR     56  51  84 NW6       29.81S
Larchmont Harb   N/A     61 N/A N/A CALM        N/A
Croton O-T Hud   N/A     59 N/A N/A NW2         N/A
Newburgh       PTCLDY    55  54  94 W12       29.83S
Montgomery     CLEAR     56  52  86 W5        29.81F
Poughkeepsie   PTCLDY    52  51  97 CALM      29.80S
Albany         DRIZZLE   54  51  90 NE3       29.83S
$$

NJZ001-105-106-008-010-013-015-019>022-104-270800-
NEW JERSEY

CITY           SKY/WX    TMP DP  RH WIND       PRES   REMARKS
Newark/Liberty CLEAR     61  53  75 W3        29.82S
Teterboro      CLEAR     60  53  77 CALM      29.81S
Caldwell       CLEAR     59  53  80 CALM      29.83S
Somerville     CLEAR     55  54  96 CALM      29.83R
Linden           N/A     61  52  73 CALM      29.83R
Perth Amboy      N/A     59 N/A N/A W6          N/A
Sussex         CLEAR     56  53  90 CALM      29.84S
Andover          N/A     54  53  97 S3        29.84S
Trenton        CLEAR     60  55  83 W8        29.85S
Millville      PTCLDY    56  54  93 W6        29.87S
Atlantic City  CLEAR     61  54  77 W6        29.86
Wrightstown    PTCLDY    60  55  84 W7        29.82F
Toms River     PTCLDY    58  55  90 W6        29.85S
Belmar         NOT AVBL
$$

PAZ047>061-062-071-270800-
EASTERN PENNSYLVANIA

CITY           SKY/WX    TMP DP  RH WIND       PRES   REMARKS
Philadelphia   CLEAR     61  52  72 SW6       29.87S
Allentown      CLEAR     58  53  84 W8        29.86R
Scranton       CLOUDY    59  56  89 CALM      29.85F
$$

CTZ002-004>006-009-010-012-RIZ004-006-007-MAZ004-011-015-270800-
SOUTHERN NEW ENGLAND
 IN CT

CITY           SKY/WX    TMP DP  RH WIND       PRES   REMARKS
Bradley INTL   CLOUDY    57  52  83 NW5       29.80R
Hartford       CLOUDY    60  52  74 NW7       29.80R
Danbury        PTCLDY    52  52 100 W3        29.82S
Wtrbury/Oxford   N/A     55  46  71 N7        29.82S
Bridgeport     CLOUDY    62  52  69 NW5       29.80S
Meriden        CLOUDY    56  55  97 CALM      29.80R
New Haven      CLEAR     58  51  78 CALM      29.80R
Chester        CLOUDY    57  55  94 NW7       29.80R
Groton         CLOUDY    59  52  77 NW6       29.78R
Wilimantic     CLOUDY    57  53  86 CALM      29.80R

 IN RI

CITY           SKY/WX    TMP DP  RH WIND       PRES   REMARKS
Providence     CLOUDY    55  54  96 W5        29.78S
Block Island   CLOUDY    56  53  90 NW5       29.79R
Westerly       CLOUDY    58  54  86 NW3       29.79R
 IN MA

CITY           SKY/WX    TMP DP  RH WIND       PRES   REMARKS
Boston         CLOUDY    54  50  86 W7        29.77R
Worcester      CLOUDY    51  48  89 NW9       29.78S
Westfield      CLOUDY    56  52  86 NW8       29.80R
Provincetown   CLOUDY    52  51  97 NW6       29.77R
Nantucket      CLOUDY   N/A N/A N/A CALM      29.75S
$$

ANZ330-335-338-340-345-350-353-355-270800-
COASTAL MARINE OBSERVATIONS


STATION/POSITION TIME  SKY/WX   TEMP    WIND        PRES    VSBY  WAVE
                                AIR SEA DIR/SP/G                  HT/PER
                 (UTC)          (F)     (DEG/KT/KT) (MB)    (MI)  (FT/S)
NY HARB ENTRANCE 0550            61 57  290/ 12/ 14 1009.7          3/ 8
20 S FIRE ISLAND 0650            59 56  300/ 10/ 12 1009.1          4/ 8
GREAT SOUTH BAY  0630            61 63  320/  4/  4   N/A
23 SSW MONTAUK P 0550            57 55              1008.9          5/ 8
15 E BARNEGAT LI 0630               58                N/A           4/ 9
HUDSON CANYON    0550            59 55  310/ 12/ 14 1009.1          5/ 7
KINGS POINT      0648                   350/  8/ 10   N/A
EXECUTION ROCKS  0630            62                   N/A
CENTRAL LI SOUND 0615            57     270/  8/ 10   N/A           1
EASTERN LI SOUND NOT AVBL
ROBBINS REEF     0648                   290/  6/  7   N/A
$$


>>>>>>>>>>>>>>>>>>>>>>>>>>>> KEY <<<<<<<<<<<<<<<<<<<<<<<<<<<
>                                                          <
>     SKY/WX - Sky Condition/Present Weather               <
>     TMP    - Temperature in Fahrenheit                   <
>     DP     - Dew Point in Fahrenheit                     <
>     RH     - Relative Humidity in Percent                <
>     WIND   - Direction (from) and Speed in MPH           <
>     PRES   - Mean Sea Level Pressure (inches of Hg)      <
>     WCI    - Wind Chill Index                            <
>     VSB    - VISIBILITY IN MILES                         <
>     HX     - HEAT INDEX                                  <
>     TC     - TEMPERATURE IN CELSIUS                      <
>     VRB    - VARIABLE WIND DIRECTION                     <
>                                                          <
>>>>>>>>>>>>>>>>>>>>>>>>>>>> KEY <<<<<<<<<<<<<<<<<<<<<<<<<<<




USA.gov is the U.S. government's official web portal to all federal, state and local government web resources and services.